SCP
0 0 0 0 0 0 0 0 0 0 0 0 0 0 0 0 0 0 0 0 0 0 0 0 0 0 0 0 0 0 0 0 0 0 0 0 0 0 0 0 0 0 -0 -0 -0 0 0
0 0 0 0 0 0 0 0 0 0 0 0 0 0 0 0 0 0 0 0 0 0 0 0 0 0 0 0 0 0 0 0 0 0 0 0 0 0 0 0 -0 -0 -0 -0 0 0 -0
0 0 0 0 0 0 0 0 0 0 0 0 0 0 0 0 0 0 0 0 0 0 0 0 0 0 0 -0 0 0 0 0 0 0 0 0 0 0 0 -0 -0 -0 -0 -0 0 0 0
0 0 0 0 0 0 0 0 0 0 0 0 0 0 0 0 0 0 0 0 0 0 0 0 0 0 0 0 -0 0 -0 0 0 0 0 0 0 -0 0 0 -0 -0 -0 0 0 -0 -0
0 0 0 0 0 0 0 0 0 0 0 0 0 0 0 0 0 0 0 0 0 0 0 0 0 0 -0 -0 0 0 0 0 0 0 0 0 0 -0 0 -0 -0 -0 0 -0 -0 -0 -0
0 0 0 0 0 0 0 0 0 0 0 0 0 0 0 0 0 0 0 0 0 0 0 0 0 0 0 0 -0 0 0 0 0 0 0 0 0 0 -0 0 -0 0 0 -0 -0 0 0
0 0 0 0 0 0 0 0 0 0 0 0 -0 0 0 0 0 0 0 0 0 0 0 0 0 0 0 0 -0 0 0 0 0 0 0 0 0 0 0 -0 -0 0 0 0 -0 0 0
0 0 0 0 0 0 0 0 0 0 0 0 0 -0 -0 -0 0 0 0 0 0 0 0 0 0 0 0 0 0 0 0 0 0 0 0 0 0 0 -0 -0 -0 0 0 0 0 0 0
0 0 0 0 0 0 0 0 0 0 0 0 -0 -0 -0 -0 -0 -0 0 0 0 0 0 0 0 0 -0 0 0 0 0 0 0 0 0 0 0 -0 0 0 0 0 -0 -0 0 0 -0
0 0 0 0 0 0 0 0 0 0 0 0 0 0 -0 -0 -0 -0 0 0 0 0 0 0 -0 0 0 0 0 -0 0 0 0 0 0 0 0 0 0 -0 0 0 -0 -0 0 0 -0
0 0 0 0 0 0 0 0 0 0 0 0 0 0 0 0 -0 0 0 0 0 0 0 0 -0 0 0 0 0 0 0 0 0 0 0 -0 0 -0 -0 0 -0 -0 -0 0 0 0 -0
0 0 0 0 0 0 0 0 0 0 0 0 0 0 0 0 0 0 0 0 0 0 0 0 0 0 0 0 0 0 0 0 0 0 0 0 -0 0 0 -0 0 0 -0 0 0 0 -0
0 0 0 0 0 0 0 0 0 0 0 0 0 0 0 0 0 0 0 0 0 0 0 0 0 0 0 0 0 0 0 0 0 0 -0 -0 -0 -0 0 -0 -0 0 -0 0 0 -0 -0
0 0 0 0 0 0 0 0 0 0 0 0 0 0 0 0 0 0 0 0 0 0 0 0 0 0 0 0 0 -0 0 0 0 0 0 0 0 -0 -0 0 -0 0 0 0 0 0 -0
0 0 0 0 0 0 0 0 0 0 0 0 0 0 0 0 0 0 0 0 0 0 0 0 0 0 0 0 0 0 0 0 0 0 0 0 -0 0 0 0 -0 0 0 0 0 0 0
0 0 0 0 0 0 0 0 0 0 0 0 0 0 0 0 -0 0 0 0 0 0 0 0 0 0 0 0 0 0 0 0 0 0 0 0 0 -0 -0 -0 0 0 0 0 0 -0 0
0 0 0 0 0 0 0 0 0 0 0 0 0 0 0 -0 -0 0 0 0 0 0 0 0 0 0 0 0 0 0 0 0 0 0 0 0 0 0 0 0 0 0 0 0 0 0 0
0 0 0 0 0 0 0 0 0 0 0 0 0 0 -0 0 0 0 0 0 0 0 0 0 0 0 0 0 0 0 0 0 0 0 0 -0 0 0 0 0 0 0 0 0 0 0 -0
0 0 0 0 0 0 0 0 0 0 0 0 0 0 0 0 0 0 0 0 0 0 0 0 0 0 0 0 0 0 0 0 -0 0 0 0 0 0 0 0 0 0 0 0 0 0 0
0 0 0 0 0 0 0 0 0 0 0 0 0 0 0 0 0 0 -0 0 0 0 0 0 0 0 0 0 0 0 0 0 0 0 0 0 0 0 0 0 0 0 0 0 0 0 0
0 0 0 0 0 0 0 0 0 0 0 0 0 0 0 0 0 0 0 0 0 0 0 0 0 0 0 0 0 0 0 -0 0 0 0 0 0 0 0 0 0 0 0 0 0 0 0
0 0 0 0 0 0 0 0 0 0 0 0 0 0 0 0 0 0 0 0 0 0 0 0 0 0 0 0 0 0 0 0 0 0 0 1 0 0 0 0 0 0 0 0 -0 0 0
0 0 0 0 0 0 0 0 0 0 0 0 -0 0 0 0 0 0 0 -0 0 0 0 0 0 0 0 0 0 0 0 0 0 0 0 1 0 0 0 0 0 0 0 0 0 0 0
0 0 0 0 0 0 0 0 0 0 0 0 0 0 0 -0 -0 -0 -0 -0 -0 0 0 0 0 0 0 0 -0 0 0 0 0 0 0 0 0 0 0 0 0 0 0 0 0 0 0
0 0 0 0 -0 0 0 0 0 0 0 0 0 0 0 -0 0 -0 -0 -0 -0 -0 -0 -0 0 0 0 0 -0 0 0 0 0 0 0 0 0 0 0 0 0 0 0 0 0 0 0
0 0 0 0 0 0 0 0 0 0 0 0 0 0 -0 0 -0 -0 -0 -0 -0 -0 -0 -0 0 0 0 -0 -0 0 0 0 0 0 0 0 0 0 0 0 0 0 0 0 0 0 0
0 0 0 0 0 -0 0 0 0 0 0 0 0 0 0 0 -0 -0 -0 0 -0 -0 -0 -0 -0 0 0 0 -0 -0 0 0 0 0 0 0 0 0 0 0 0 0 0 0 0 0 0
0 0 0 0 0 0 0 0 0 0 0 0 0 0 0 0 -0 -0 -0 -0 0 -0 -0 -0 0 0 0 0 0 -0 0 0 0 0 0 0 0 1 0 1 0 0 0 0 1 1 0
0 0 0 0 0 0 0 0 0 0 0 0 0 0 0 0 -0 -0 -0 -0 -0 -0 -0 0 -0 0 0 0 0 0 0 0 0 0 0 0 1 0 0 1 1 0 0 1 1 0 0
Wind_Speed_500mb
23 25 28 31 37 42 44 48 48 50 48 47 47 49 47 48 50 53 53 55 56 55 54 51 45 44 39 29 49 35 48 45 18 42 54 60 70 70 52 53 58 52 52 63 50 39 58
31 31 32 33 33 35 38 41 42 46 53 49 47 49 50 49 49 52 54 51 49 50 50 49 48 46 36 42 58 50 47 46 34 33 54 57 64 71 65 59 57 57 61 57 44 62 60
31 34 38 40 39 39 41 42 39 40 42 46 50 49 47 48 50 47 47 53 51 46 44 43 45 45 46 72 33 22 32 50 37 36 41 45 56 63 61 55 65 60 50 45 49 51 45
40 38 36 34 33 33 35 39 43 45 43 43 48 44 45 44 47 50 44 47 49 47 43 38 37 34 38 52 54 67 44 45 48 55 49 37 39 54 64 59 57 45 52 43 46 45 58
36 37 39 40 39 38 38 37 37 39 41 42 41 42 45 48 52 54 53 47 43 38 42 36 35 35 42 29 51 69 59 65 45 40 35 43 51 53 45 40 39 41 36 50 47 44 47
35 35 35 35 38 41 44 46 43 40 39 38 40 40 40 44 51 53 57 50 27 34 35 23 32 24 46 53 47 50 55 63 66 53 54 48 50 38 36 32 41 40 45 44 45 45 36
38 38 37 37 40 41 42 44 46 48 43 40 39 38 39 42 47 44 48 33 16 14 40 46 35 57 40 21 30 45 43 51 63 60 43 54 31 44 50 51 51 49 49 48 44 29 20
39 40 39 38 41 44 46 47 45 44 46 49 43 40 38 37 43 43 39 23 33 25 29 59 83 75 64 45 34 43 40 50 61 54 47 44 51 53 55 51 54 55 52 47 42 37 27
44 44 43 42 43 44 46 47 48 49 47 44 44 43 34 36 42 41 36 49 42 35 26 57 76 91 83 71 70 54 63 60 43 53 57 55 54 54 56 52 51 50 50 40 46 34 32
49 50 49 49 47 47 49 51 51 50 50 48 41 40 35 31 27 22 36 27 24 18 15 30 51 67 91 76 80 80 62 61 47 54 60 61 54 57 58 57 51 49 50 51 39 30 24
52 51 50 52 49 49 50 54 55 56 54 47 43 38 31 29 26 25 24 11 5 9 14 16 71 29 56 88 21 87 91 74 52 53 43 61 59 57 59 56 55 47 48 43 33 30 32
56 54 53 53 52 52 54 57 59 53 49 46 40 39 30 32 33 33 26 23 8 14 27 18 20 50 45 70 80 16 99 88 69 52 55 55 58 59 61 52 52 49 45 33 24 24 26
60 55 53 54 54 53 56 59 57 55 55 47 41 35 37 30 37 16 13 17 15 27 22 24 40 48 48 50 64 65 59 64 54 52 55 53 59 61 58 56 47 44 34 21 23 24 24
60 57 53 54 55 52 58 58 55 56 55 46 38 37 39 37 32 26 19 13 30 40 70 20 40 47 50 45 55 68 51 53 64 61 30 44 45 65 53 61 51 46 33 26 30 23 33
62 54 52 56 55 52 58 58 54 54 50 37 31 34 38 38 31 31 18 26 43 56 37 56 62 59 44 49 43 61 68 58 62 64 48 44 57 49 63 47 50 42 43 37 35 32 26
58 51 51 56 55 57 61 57 50 52 46 34 30 26 39 34 36 33 15 36 46 59 72 67 56 37 41 40 54 60 61 63 62 67 49 46 35 57 58 50 49 44 38 33 25 33 30
54 54 50 56 55 59 57 51 50 51 43 29 21 12 43 38 39 24 15 36 47 66 78 59 58 54 53 50 49 56 63 55 63 65 61 50 33 38 46 54 45 37 39 35 28 29 25
56 51 52 56 59 59 52 48 53 45 34 18 15 7 13 49 15 6 13 44 48 49 66 56 45 41 53 49 44 32 46 63 47 60 68 63 21 32 51 51 52 46 46 35 20 35 23
51 53 53 57 55 53 51 50 50 36 25 12 6 12 9 45 10 18 33 45 51 48 50 48 42 42 48 48 24 27 40 49 79 58 57 51 40 27 39 43 49 47 48 41 29 18 29
54 52 54 56 55 58 53 42 39 29 14 7 11 6 2 17 8 21 35 42 40 45 50 41 40 43 42 42 42 31 43 31 45 58 72 43 38 43 31 35 43 51 48 45 39 26 28
51 50 55 59 56 55 51 32 35 28 14 10 9 8 9 5 14 21 28 38 44 42 45 33 43 39 43 41 44 38 33 37 48 44 47 42 53 44 50 47 54 53 53 51 49 40 38
48 51 54 57 64 50 40 34 29 32 15 14 11 8 18 26 23 25 21 23 39 41 41 37 34 36 38 41 43 35 41 38 27 36 22 38 45 48 48 56 51 55 55 52 52 49 44
48 54 53 56 56 45 44 33 30 36 18 11 17 14 15 18 15 16 20 22 24 29 33 32 34 37 31 38 53 46 55 54 56 47 41 25 37 41 47 47 50 48 55 52 41 43 44
46 52 54 59 56 44 42 37 31 32 15 25 21 18 10 16 16 8 26 23 30 38 28 39 36 30 41 46 35 53 61 60 54 49 38 30 41 33 36 39 52 32 37 44 42 39 40
45 51 52 60 57 43 45 40 36 31 21 14 28 23 9 9 29 33 20 27 32 37 33 36 42 52 31 15 12 23 25 34 41 45 41 35 34 22 31 38 29 43 50 44 40 41 38
46 51 56 58 57 53 47 44 38 30 23 15 20 23 18 12 9 42 30 33 21 25 32 44 44 47 25 6 2 6 10 18 21 17 36 37 31 24 23 41 49 35 44 44 30 33 35
50 53 56 58 59 57 48 47 37 27 17 15 16 16 20 13 37 24 26 22 23 24 16 38 24 30 24 9 7 12 16 16 18 42 30 33 30 36 27 22 33 44 41 54 38 18 32
54 56 59 61 60 56 45 40 30 26 17 15 20 25 23 16 57 41 32 27 24 18 7 26 23 21 12 12 4 4 9 16 19 31 25 38 32 25 31 27 29 30 43 45 17 13 28
58 60 62 63 60 54 41 32 30 25 19 22 25 28 24 32 52 66 52 42 46 30 18 15 15 23 20 12 13 6 8 7 17 8 25 16 24 24 24 27 11 23 19 34 29 33 24
Wind_Direction_500mb
325 323 319 314 307 298 296 294 293 294 297 299 295 284 281 279 274 273 273 275 277 278 280 281 282 283 281 248 241 252 293 291 271 223 216 225 232 227 236 241 245 252 261 262 270 275 265
318 314 316 315 316 319 316 305 301 292 291 293 295 297 295 291 284 273 271 270 271 273 275 278 279 279 279 254 259 260 258 264 254 233 224 220 232 239 247 246 253 256 260 267 270 258 264
338 328 319 314 311 312 313 315 318 313 301 298 292 289 292 296 296 288 279 270 268 270 269 269 270 272 263 245 239 246 250 236 234 219 220 226 231 247 254 250 259 263 266 270 255 255 260
9 7 4 0 356 345 328 316 309 309 310 309 299 295 289 293 296 296 286 275 268 267 266 267 267 262 257 261 266 237 219 244 238 232 235 237 240 246 256 266 261 257 261 259 259 253 252
359 356 354 351 350 349 346 344 341 329 311 306 310 301 288 288 291 292 295 282 270 266 261 260 255 238 264 271 237 244 230 235 231 223 230 239 237 246 237 247 258 249 250 254 258 250 255
351 350 348 347 344 339 335 332 331 330 333 319 307 305 309 294 288 289 293 295 269 260 255 252 241 225 251 246 241 235 231 227 229 235 238 242 228 232 236 223 233 237 240 237 251 261 253
350 347 345 343 337 337 338 337 331 326 322 323 316 298 302 307 300 290 295 322 262 232 217 211 207 209 266 276 242 229 222 222 224 233 226 220 225 227 224 225 236 243 248 249 252 239 267
348 343 336 328 326 328 327 326 328 326 318 318 315 313 301 299 307 295 281 259 238 321 286 243 243 242 242 250 264 226 209 208 209 219 217 216 224 226 231 230 230 241 250 260 272 283 291
345 342 338 332 327 323 323 323 321 317 317 314 308 309 304 302 311 296 266 254 265 295 275 263 240 238 233 234 241 229 212 212 212 211 215 222 222 222 234 227 230 232 244 254 262 276 276
338 338 337 335 330 329 328 325 322 314 308 306 306 299 304 297 309 313 284 278 252 261 275 256 218 244 227 223 241 227 220 211 221 216 216 228 226 226 223 233 221 232 232 239 250 270 270
336 335 334 332 329 327 326 325 322 320 316 301 297 293 289 270 275 291 341 41 265 206 264 238 215 211 201 196 173 215 213 211 214 212 213 226 222 226 225 219 231 234 236 241 237 245 257
333 332 330 329 326 323 325 326 323 319 314 310 294 288 281 264 274 276 285 307 264 225 235 243 221 185 191 200 216 223 198 216 216 223 228 230 234 226 230 231 218 233 236 244 253 261 254
331 330 328 329 328 323 323 325 323 321 314 307 287 280 267 258 251 278 260 271 211 228 238 254 189 175 198 194 210 226 188 199 212 209 224 227 228 232 230 228 224 217 226 224 225 236 253
334 330 330 331 330 328 326 326 324 322 320 307 284 267 261 255 246 251 255 234 229 229 237 265 224 187 201 217 202 209 191 201 213 206 208 219 222 221 218 228 219 209 204 228 224 226 246
333 330 332 335 332 331 329 326 325 325 322 310 284 271 255 240 233 235 207 221 229 245 269 241 282 285 200 218 215 201 218 203 205 207 213 206 229 213 227 209 227 199 212 215 250 262 274
335 335 333 335 333 332 330 327 326 326 321 309 286 273 256 237 211 219 216 237 247 250 267 290 292 318 314 228 224 194 202 222 207 206 217 233 217 226 203 216 212 221 196 208 227 242 264
344 340 338 338 336 338 335 333 331 326 320 294 273 269 268 216 203 204 221 221 241 259 272 287 288 301 307 301 296 215 210 219 205 204 211 227 248 213 216 205 198 202 228 199 224 224 230
342 342 341 339 340 338 336 336 337 331 324 279 234 244 261 178 181 214 240 240 270 276 280 288 289 287 284 299 305 294 232 213 219 204 200 212 227 242 216 202 200 207 215 203 214 220 248
345 345 341 341 341 340 338 329 337 336 355 274 244 251 183 174 206 233 247 250 259 268 272 273 276 270 284 303 306 287 266 245 221 191 207 201 226 237 236 210 186 211 217 217 206 221 217
347 347 346 344 341 342 338 332 339 339 338 273 300 311 118 231 263 273 260 267 280 285 277 261 262 272 277 275 280 282 293 290 229 218 199 187 220 222 228 211 179 194 216 215 214 209 227
353 352 353 353 347 342 342 339 340 343 334 292 246 244 244 240 250 255 300 281 280 280 282 285 249 257 261 278 281 268 335 340 320 286 189 187 212 225 229 237 195 195 205 221 215 215 221
359 357 355 355 356 355 359 349 341 350 307 254 283 326 331 294 288 274 250 275 274 274 286 290 286 248 247 262 264 304 316 321 287 340 255 188 210 215 226 229 244 203 202 213 225 215 215
359 359 356 356 0 4 1 358 351 344 300 267 272 289 313 291 289 296 277 273 297 300 287 264 260 285 288 271 279 280 303 288 289 290 293 232 206 201 225 222 235 222 200 202 219 228 210
359 359 358 358 356 353 357 356 347 348 332 242 305 298 274 287 300 224 275 301 260 281 290 292 287 255 272 275 313 286 277 275 276 266 256 268 206 198 212 224 228 233 207 207 216 223 223
358 359 357 357 359 359 356 348 348 350 346 246 272 289 304 289 310 298 337 280 312 293 260 264 272 268 271 289 282 310 286 260 251 251 255 244 201 196 207 220 230 217 230 209 203 212 212
1 358 355 355 357 353 346 342 339 342 338 304 280 291 279 296 290 319 321 327 316 316 302 284 273 257 249 218 147 250 288 231 212 228 232 241 185 196 196 215 221 224 212 225 223 219 201
357 353 351 351 353 350 348 349 345 340 327 306 296 294 264 276 285 303 311 297 308 312 287 290 303 228 224 207 158 237 259 280 250 214 200 221 189 196 224 211 214 217 218 201 212 231 193
354 353 350 347 346 348 347 353 1 4 346 318 308 299 277 273 291 283 288 279 278 287 307 314 313 243 163 209 175 197 270 326 303 288 244 214 186 196 211 231 221 222 213 219 162 190 201
349 347 346 346 348 348 342 340 342 349 347 333 317 324 312 268 272 296 285 268 264 266 259 252 336 321 23 231 203 223 272 333 333 270 280 295 185 207 215 215 273 249 252 154 162 225 227
Wind_Speed_850mb
23 25 28 31 37 42 44 48 48 50 48 47 47 49 47 48 50 53 53 55 56 55 54 51 45 44 39 29 49 35 48 45 18 42 54 60 70 70 52 53 58 52 52 63 50 39 58
31 31 32 33 33 35 38 41 42 46 53 49 47 49 50 49 49 52 54 51 49 50 50 49 48 46 36 42 58 50 47 46 34 33 54 57 64 71 65 59 57 57 61 57 44 62 60
31 34 38 40 39 39 41 42 39 40 42 46 50 49 47 48 50 47 47 53 51 46 44 43 45 45 46 72 33 22 32 50 37 36 41 45 56 63 61 55 65 60 50 45 49 51 45
40 38 36 34 33 33 35 39 43 45 43 43 48 44 45 44 47 50 44 47 49 47 43 38 37 34 38 52 54 67 44 45 48 55 49 37 39 54 64 59 57 45 52 43 46 45 58
36 37 39 40 39 38 38 37 37 39 41 42 41 42 45 48 52 54 53 47 43 38 42 36 35 35 42 29 51 69 59 65 45 40 35 43 51 53 45 40 39 41 36 50 47 44 47
35 35 35 35 38 41 44 46 43 40 39 38 40 40 40 44 51 53 57 50 27 34 35 23 32 24 46 53 47 50 55 63 66 53 54 48 50 38 36 32 41 40 45 44 45 45 36
38 38 37 37 40 41 42 44 46 48 43 40 39 38 39 42 47 44 48 33 16 14 40 46 35 57 40 21 30 45 43 51 63 60 43 54 31 44 50 51 51 49 49 48 44 29 20
39 40 39 38 41 44 46 47 45 44 46 49 43 40 38 37 43 43 39 23 33 25 29 59 83 75 64 45 34 43 40 50 61 54 47 44 51 53 55 51 54 55 52 47 42 37 27
44 44 43 42 43 44 46 47 48 49 47 44 44 43 34 36 42 41 36 49 42 35 26 57 76 91 83 71 70 54 63 60 43 53 57 55 54 54 56 52 51 50 50 40 46 34 32
49 50 49 49 47 47 49 51 51 50 50 48 41 40 35 31 27 22 36 27 24 18 15 30 51 67 91 76 80 80 62 61 47 54 60 61 54 57 58 57 51 49 50 51 39 30 24
52 51 50 52 49 49 50 54 55 56 54 47 43 38 31 29 26 25 24 11 5 9 14 16 71 29 56 88 21 87 91 74 52 53 43 61 59 57 59 56 55 47 48 43 33 30 32
56 54 53 53 52 52 54 57 59 53 49 46 40 39 30 32 33 33 26 23 8 14 27 18 20 50 45 70 80 16 99 88 69 52 55 55 58 59 61 52 52 49 45 33 24 24 26
60 55 53 54 54 53 56 59 57 55 55 47 41 35 37 30 37 16 13 17 15 27 22 24 40 48 48 50 64 65 59 64 54 52 55 53 59 61 58 56 47 44 34 21 23 24 24
60 57 53 54 55 52 58 58 55 56 55 46 38 37 39 37 32 26 19 13 30 40 70 20 40 47 50 45 55 68 51 53 64 61 30 44 45 65 53 61 51 46 33 26 30 23 33
62 54 52 56 55 52 58 58 54 54 50 37 31 34 38 38 31 31 18 26 43 56 37 56 62 59 44 49 43 61 68 58 62 64 48 44 57 49 63 47 50 42 43 37 35 32 26
58 51 51 56 55 57 61 57 50 52 46 34 30 26 39 34 36 33 15 36 46 59 72 67 56 37 41 40 54 60 61 63 62 67 49 46 35 57 58 50 49 44 38 33 25 33 30
54 54 50 56 55 59 57 51 50 51 43 29 21 12 43 38 39 24 15 36 47 66 78 59 58 54 53 50 49 56 63 55 63 65 61 50 33 38 46 54 45 37 39 35 28 29 25
56 51 52 56 59 59 52 48 53 45 34 18 15 7 13 49 15 6 13 44 48 49 66 56 45 41 53 49 44 32 46 63 47 60 68 63 21 32 51 51 52 46 46 35 20 35 23
51 53 53 57 55 53 51 50 50 36 25 12 6 12 9 45 10 18 33 45 51 48 50 48 42 42 48 48 24 27 40 49 79 58 57 51 40 27 39 43 49 47 48 41 29 18 29
54 52 54 56 55 58 53 42 39 29 14 7 11 6 2 17 8 21 35 42 40 45 50 41 40 43 42 42 42 31 43 31 45 58 72 43 38 43 31 35 43 51 48 45 39 26 28
51 50 55 59 56 55 51 32 35 28 14 10 9 8 9 5 14 21 28 38 44 42 45 33 43 39 43 41 44 38 33 37 48 44 47 42 53 44 50 47 54 53 53 51 49 40 38
48 51 54 57 64 50 40 34 29 32 15 14 11 8 18 26 23 25 21 23 39 41 41 37 34 36 38 41 43 35 41 38 27 36 22 38 45 48 48 56 51 55 55 52 52 49 44
48 54 53 56 56 45 44 33 30 36 18 11 17 14 15 18 15 16 20 22 24 29 33 32 34 37 31 38 53 46 55 54 56 47 41 25 37 41 47 47 50 48 55 52 41 43 44
46 52 54 59 56 44 42 37 31 32 15 25 21 18 10 16 16 8 26 23 30 38 28 39 36 30 41 46 35 53 61 60 54 49 38 30 41 33 36 39 52 32 37 44 42 39 40
45 51 52 60 57 43 45 40 36 31 21 14 28 23 9 9 29 33 20 27 32 37 33 36 42 52 31 15 12 23 25 34 41 45 41 35 34 22 31 38 29 43 50 44 40 41 38
46 51 56 58 57 53 47 44 38 30 23 15 20 23 18 12 9 42 30 33 21 25 32 44 44 47 25 6 2 6 10 18 21 17 36 37 31 24 23 41 49 35 44 44 30 33 35
50 53 56 58 59 57 48 47 37 27 17 15 16 16 20 13 37 24 26 22 23 24 16 38 24 30 24 9 7 12 16 16 18 42 30 33 30 36 27 22 33 44 41 54 38 18 32
54 56 59 61 60 56 45 40 30 26 17 15 20 25 23 16 57 41 32 27 24 18 7 26 23 21 12 12 4 4 9 16 19 31 25 38 32 25 31 27 29 30 43 45 17 13 28
58 60 62 63 60 54 41 32 30 25 19 22 25 28 24 32 52 66 52 42 46 30 18 15 15 23 20 12 13 6 8 7 17 8 25 16 24 24 24 27 11 23 19 34 29 33 24
Wind_Direction_850mb
325 323 319 314 307 298 296 294 293 294 297 299 295 284 281 279 274 273 273 275 277 278 280 281 282 283 281 248 241 252 293 291 271 223 216 225 232 227 236 241 245 252 261 262 270 275 265
318 314 316 315 316 319 316 305 301 292 291 293 295 297 295 291 284 273 271 270 271 273 275 278 279 279 279 254 259 260 258 264 254 233 224 220 232 239 247 246 253 256 260 267 270 258 264
338 328 319 314 311 312 313 315 318 313 301 298 292 289 292 296 296 288 279 270 268 270 269 269 270 272 263 245 239 246 250 236 234 219 220 226 231 247 254 250 259 263 266 270 255 255 260
9 7 4 0 356 345 328 316 309 309 310 309 299 295 289 293 296 296 286 275 268 267 266 267 267 262 257 261 266 237 219 244 238 232 235 237 240 246 256 266 261 257 261 259 259 253 252
359 356 354 351 350 349 346 344 341 329 311 306 310 301 288 288 291 292 295 282 270 266 261 260 255 238 264 271 237 244 230 235 231 223 230 239 237 246 237 247 258 249 250 254 258 250 255
351 350 348 347 344 339 335 332 331 330 333 319 307 305 309 294 288 289 293 295 269 260 255 252 241 225 251 246 241 235 231 227 229 235 238 242 228 232 236 223 233 237 240 237 251 261 253
350 347 345 343 337 337 338 337 331 326 322 323 316 298 302 307 300 290 295 322 262 232 217 211 207 209 266 276 242 229 222 222 224 233 226 220 225 227 224 225 236 243 248 249 252 239 267
348 343 336 328 326 328 327 326 328 326 318 318 315 313 301 299 307 295 281 259 238 321 286 243 243 242 242 250 264 226 209 208 209 219 217 216 224 226 231 230 230 241 250 260 272 283 291
345 342 338 332 327 323 323 323 321 317 317 314 308 309 304 302 311 296 266 254 265 295 275 263 240 238 233 234 241 229 212 212 212 211 215 222 222 222 234 227 230 232 244 254 262 276 276
338 338 337 335 330 329 328 325 322 314 308 306 306 299 304 297 309 313 284 278 252 261 275 256 218 244 227 223 241 227 220 211 221 216 216 228 226 226 223 233 221 232 232 239 250 270 270
336 335 334 332 329 327 326 325 322 320 316 301 297 293 289 270 275 291 341 41 265 206 264 238 215 211 201 196 173 215 213 211 214 212 213 226 222 226 225 219 231 234 236 241 237 245 257
333 332 330 329 326 323 325 326 323 319 314 310 294 288 281 264 274 276 285 307 264 225 235 243 221 185 191 200 216 223 198 216 216 223 228 230 234 226 230 231 218 233 236 244 253 261 254
331 330 328 329 328 323 323 325 323 321 314 307 287 280 267 258 251 278 260 271 211 228 238 254 189 175 198 194 210 226 188 199 212 209 224 227 228 232 230 228 224 217 226 224 225 236 253
334 330 330 331 330 328 326 326 324 322 320 307 284 267 261 255 246 251 255 234 229 229 237 265 224 187 201 217 202 209 191 201 213 206 208 219 222 221 218 228 219 209 204 228 224 226 246
333 330 332 335 332 331 329 326 325 325 322 310 284 271 255 240 233 235 207 221 229 245 269 241 282 285 200 218 215 201 218 203 205 207 213 206 229 213 227 209 227 199 212 215 250 262 274
335 335 333 335 333 332 330 327 326 326 321 309 286 273 256 237 211 219 216 237 247 250 267 290 292 318 314 228 224 194 202 222 207 206 217 233 217 226 203 216 212 221 196 208 227 242 264
344 340 338 338 336 338 335 333 331 326 320 294 273 269 268 216 203 204 221 221 241 259 272 287 288 301 307 301 296 215 210 219 205 204 211 227 248 213 216 205 198 202 228 199 224 224 230
342 342 341 339 340 338 336 336 337 331 324 279 234 244 261 178 181 214 240 240 270 276 280 288 289 287 284 299 305 294 232 213 219 204 200 212 227 242 216 202 200 207 215 203 214 220 248
345 345 341 341 341 340 338 329 337 336 355 274 244 251 183 174 206 233 247 250 259 268 272 273 276 270 284 303 306 287 266 245 221 191 207 201 226 237 236 210 186 211 217 217 206 221 217
347 347 346 344 341 342 338 332 339 339 338 273 300 311 118 231 263 273 260 267 280 285 277 261 262 272 277 275 280 282 293 290 229 218 199 187 220 222 228 211 179 194 216 215 214 209 227
353 352 353 353 347 342 342 339 340 343 334 292 246 244 244 240 250 255 300 281 280 280 282 285 249 257 261 278 281 268 335 340 320 286 189 187 212 225 229 237 195 195 205 221 215 215 221
359 357 355 355 356 355 359 349 341 350 307 254 283 326 331 294 288 274 250 275 274 274 286 290 286 248 247 262 264 304 316 321 287 340 255 188 210 215 226 229 244 203 202 213 225 215 215
359 359 356 356 0 4 1 358 351 344 300 267 272 289 313 291 289 296 277 273 297 300 287 264 260 285 288 271 279 280 303 288 289 290 293 232 206 201 225 222 235 222 200 202 219 228 210
359 359 358 358 356 353 357 356 347 348 332 242 305 298 274 287 300 224 275 301 260 281 290 292 287 255 272 275 313 286 277 275 276 266 256 268 206 198 212 224 228 233 207 207 216 223 223
358 359 357 357 359 359 356 348 348 350 346 246 272 289 304 289 310 298 337 280 312 293 260 264 272 268 271 289 282 310 286 260 251 251 255 244 201 196 207 220 230 217 230 209 203 212 212
1 358 355 355 357 353 346 342 339 342 338 304 280 291 279 296 290 319 321 327 316 316 302 284 273 257 249 218 147 250 288 231 212 228 232 241 185 196 196 215 221 224 212 225 223 219 201
357 353 351 351 353 350 348 349 345 340 327 306 296 294 264 276 285 303 311 297 308 312 287 290 303 228 224 207 158 237 259 280 250 214 200 221 189 196 224 211 214 217 218 201 212 231 193
354 353 350 347 346 348 347 353 1 4 346 318 308 299 277 273 291 283 288 279 278 287 307 314 313 243 163 209 175 197 270 326 303 288 244 214 186 196 211 231 221 222 213 219 162 190 201
349 347 346 346 348 348 342 340 342 349 347 333 317 324 312 268 272 296 285 268 264 266 259 252 336 321 23 231 203 223 272 333 333 270 280 295 185 207 215 215 273 249 252 154 162 225 227